Погода Баяндай

Погода Баяндай : погода сейчас, прогноз погоды и архив. Всё, что Вы хотите узнать о погоде Баяндай!

Хотите узнать прогноз погоды Баяндай? Тогда Вам сюда: Погода Баяндай

Поиск расширенной информации на нашем сайте:

Полезная информация: Свадебные церемонии прокат авто в Москве

Другие новости

Новости СМИ2

Главная страница сайта

Новости сайта

02.10.2013

Напоминаем, что на нашем новом сайте вы можете получить высокодетализированные прогнозы погоды по пунктам России, СНГ и мира (включающие важные для авиации метеовеличины, такие как направление и скорость ветра, видимость, явления погоды, количество и форма облачности, нижняя и верхняя граница облачности), а также ознакомиться с разнообразными материалами по авиационной метеорологии и подборкой полезных ссылок на эту тему.

Сайт Метеоцентр.Азия посвящён разработке технологий оптимизации авиаметеорологического обслуживания, включая проектирование и перспективное создание нескольких автоматизированных авиаметеорологических систем:
- система выпуска высокодетальных прогностических карт явлений погоды для нижнего воздушного пространства по России и ближнему зарубежью;
- система верификации прогнозов TAF (выпускаемых синоптиками официальных АМСГ РФ и ближнего зарубежья) и AUTOTAF (выпускаемых сайтом Метеоцентр.Азия) - выявление ошибок, онлайн-сопоставление с фактической погодой METAR, автоматическое внесение коррективов в прогнозы при резком отклонении фактической погоды от прогноза, подсчёт оправдываемости прогнозов по элементам и в целом;
- система обработки, анализа и отображения авиаметеорологической информации для применения провайдерами метеорологической информации.

Рекомендуем: хлорка для бассейна

Погода Баяндай - сегодня

Время (UTC), дата Ветер
(°,м/с) 
Видим.   Явления Облачность Т
(°С)
Тd
(°С)
f(%) Тe
(°С)
Pmin
(гПа)
dP
(гПа)
Po
(мм)
O2
(г/м3)
Тmin Tmax R s Состояние
почвы
12 20.06.17 170 (Ю) 20000 м    6/0 верхняя 
[Ci fib]
+26.4 +6.9 29 +26  1007.5  -0.1  693  254    +28.5       
15 20.06.17 тихо ()   20000 м    3/0 верхняя 
[Ci fib]
+19.2 +8.7 51 +20  1010.6  694  260           
18 20.06.17 тихо ()   20000 м    3/0 верхняя 
[Ci fib]
+16.9 +9.2 60 +19  1010.9  -0.3  694  262           
21 20.06.17 040 (СВ) 20000 м    8/0 верхняя 
[Ci fib]
+14 +7 63 +14  1012  0.1  694  265           
00 21.06.17 050 (СВ) 20000 м    1/0 верхняя 
[Ci fib]
+16.3 +7.8 57 +17  1011.6  0.3  694  263  +12.5         
03 21.06.17 140 (ЮВ) 20000 м    9/1 1000 м верхняя 
[Cu hum|Ci fib]
+25.8 +11.2 40 +30  1008.2  -0.4  694  253           
06 21.06.17 200 (Ю) 20000 м    4/3 1000 м верхняя 
[Cu hum|Ci fib]
+28.6 +8.4 28 +29  1005.9  -1.5  693  251           
09 21.06.17 190 (Ю) 20000 м    1/1 1000 м 
[Cu hum]
+29.6 +7.9 26 +30  1004.6  -1  692  250           
12 21.06.17 170 (Ю) 20000 м    ясно 
+27.2 +7.7 29 +27  1005  -0.2  692  252    +30       
15 21.06.17 080 (В) 20000 м    1/0 верхняя 
[Ci fib]
+19.8 +8.5 48 +22  1007.4  0.2  692  258           
18 21.06.17 тихо ()   20000 м    ясно 
+18.5 +7.8 50 +19  1007.7  -0.1  692  260           
21 21.06.17 070 (В) 20000 м    3/0 верхняя 
[Ci fib]
+16.6 +7.2 54 +18  1008.6  0.3  692  262           
00 22.06.17 060 (СВ) 20000 м    ясно 
+20.9 +9.3 47 +23  1007.9  0.6  693  258  +14.6         
03 22.06.17 210 (ЮЗ) 20000 м    ясно 
+28.4 +8.9 29 +30  1005.4  -0.3  692  251           
06 22.06.17 170 (Ю) 20000 м    ясно 
+30.9 +7 22 +31  1004.3  -0.4  692  249           
09 22.06.17 150 (ЮВ) 20000 м    ясно 
+31 +9.2 26 +33  1003.3  -0.8  692  249           
12 22.06.17 170 (Ю) 20000 м    1/0 верхняя 
[Ci fib]
+29 +8.5 28 +30  1003.8  -0.1  692  250    +32.2       
15 22.06.17 тихо ()   20000 м    1/0 верхняя 
[Ci fib]
+21.2 +8 43 +21  1007.2  692  257           
18 22.06.17 070 (В) 20000 м    3/0 верхняя 
[Ci fib]
+18.6 +7.6 49 +20  1008.2  0.3  692  260           
21 22.06.17 030 (СВ) 20000 м    9/0 верхняя 
[Ci fib]
+16.9 +8.1 56 +18  1008.8  692  261           
00 23.06.17 060 (СВ) 20000 м    3/0 верхняя 
[Ci fib]
+20 +10 53 +23  1008.4  0.6  693  258  +1.1         
03 23.06.17 210 (ЮЗ) 20000 м    6/0 верхняя 
[Ci fib]
+27.8 +12.6 39 +34  1005.8  -0.3  693  251           
06 23.06.17 180 (Ю) 20000 м    10/0 верхняя 
[Cs]
+31.3 +11.1 29 +36  1003.5  -1.3  692  248           
09 23.06.17 190 (Ю) 20000 м    10/0 верхняя 
[Cs]
+32.4 +10.7 26 +36  1002.1  -1  691  247           
12 23.06.17 тихо ()   20000 м    8/0 верхняя 
[Cs]
+29.4 +10.5 31 +33  1002.6  -0.3  691  249    +33.1       
Время (UTC), дата Ветер
(°,м/с) 
Видим.   Явления Облачность Т
(°С)
Тd
(°С)
f(%) Тe
(°С)
Pmin
(гПа)
dP
(гПа)
Po
(мм)
O2
(г/м3)
Тmin Tmax R s Состояние
почвы

Для получения пояснительной информации подведите курсор к названию столбца.

ПОГОДА Баяндай - архив

Всё, что Вы хотите узнать о погоде Баяндай - удобно и подробно!

Выберите нужную дату (начиная с 1 января 2015* года) и нажмите кнопку "Найти".
Будут отображены архивные сводки погоды по пункту Баяндай, начиная с указанной даты.


Отображать данные в формате CSV (для использования в таблицах Excel)


Внимание! Наш архив погоды предназначен исключительно для личного некоммерческого использования в познавательных целях. Если Вам необходимы официальные справки о состоянии погоды (для производственных, юридических, коммерческих и т.п. целей), обращайтесь в органы Росгидромета.

*Примечание: данная дата относится к архиву по метеостанциям СССР (Россия, СНГ, Балтия).
Архив по метеостанциям Зарубежной Европы и Азии (кроме Китая) хранится 10 дней, по другим регионам земного шара (Китай, Африка, Америка, Австралия, Океания) - 1 день.

Баяндай - район местоположения метеостанции


Название, широта, долгота, высота метеостанции:
Баяндай 53.1°ш. 105.5°д. 762 м над ур. моря [Российская Федерация]

Дополнительная информация

В oтличие oт бoльшинства пoгoдных сайтoв мы публикуем пoдрoбную метеoинфoрмацию в детальнoм прoфессиoнальнoм фoрмате.

Характеристики температуры и влажнoсти вoздуха измеряются на высoте 2 м в тени вдали oт зданий и деревьев.
Скoрoсть ветра измеряется на высoте 10 м (на урoвне рoста челoвека скoрoсть ветра ниже в 1.5-2 раза). Если метеoстанция нахoдится в гoрoде или в лесу, тo скoрoсть ветра занижена на 2-4 м/с пo сравнению с oткрытым местoм. Скoрoсть ветра над акватoриями крупных рек и oзёр, а также на вершинах хoлмoв на 2-5 м/с выше, чем в oбычных услoвиях.
Атмoсфернoе давление в разных тoчках местнoсти мoжет значительнo oтличаться oт давления на метеoстанции, в зависимoсти oт услoвий рельефа (при пoдъёме на 10 м давление пoнижается примернo на 1 мм рт.ст.).